Tracking 19644 objects as of 24-Apr-2019
HD Live streaming from Space Station
objects crossing your sky now

SL-8 R/B

Track SL-8 R/B now!
10-day predictions


NORAD ID: 19922
Int'l Code: 1989-028B
Perigee: 953.6 km
Apogee: 1,008.3 km
Inclination: 83.0 °
Period: 104.6 minutes
Semi major axis: 7351 km
RCS: 5.2585 m2 (large)
Launch date: April 4, 1989
Source: Commonwealth of Independent States (former USSR) (CIS)
Launch site: PLESETSK MISSILE AND SPACE COMPLEX (PKMTR)

Note: This is a ROCKET BODY
aabbcc
Your satellite tracking list
Your tracking list is empty




NASA's NSSDC Master Catalog

Two Line Element Set (TLE):
1 19922U 89028B   19113.61095957 -.00000053 +00000-0 -68917-4 0  9992
2 19922 082.9553 285.7211 0037189 152.0785 208.2379 13.77204109509941
Source of the keplerian elements: AFSPC